This is the latest recevied weather packets stored in our database for station/object WC0AA. If no packets are shown the sender has not sent any weather packets the latest 10 day(s).
| Time | Temp. | Humidity | Pressure | Rain* | Wind** | Luminosity | Snow |
|---|---|---|---|---|---|---|---|
| 1777518005 | 8.89° C | 83% | 1018.7 hPa | 0 mm | - | - | - |
| 1777514404 | 11.11° C | 70% | 1018.3 hPa | 0 mm | - | - | - |
| 1777510204 | 15° C | 50% | 1017.8 hPa | 0 mm | - | - | - |
| 1777508404 | 15.56° C | 47% | 1017.9 hPa | 0 mm | - | - | - |
| 1777507204 | 15.56° C | 47% | 1017.9 hPa | 0 mm | - | - | - |
| 1777506604 | 16.11° C | 47% | 1017.9 hPa | 0 mm | - | - | - |
| 1777504804 | 16.67° C | 45% | 1017.9 hPa | 0 mm | - | - | - |
| 1777502404 | 18.33° C | 41% | 1017.9 hPa | 0 mm | - | - | - |
| 1777501204 | 18.33° C | 42% | 1017.9 hPa | 0 mm | - | - | - |
| 1777500604 | 17.78° C | 42% | 1017.9 hPa | 0 mm | - | - | - |
| 1777497004 | 17.22° C | 45% | 1018.5 hPa | 0 mm | - | - | - |
| 1777494605 | 18.33° C | 44% | 1019.4 hPa | 0 mm | - | - | - |
| 1777492804 | 18.33° C | 45% | 1019.6 hPa | 0 mm | - | - | - |
| 1777492205 | 18.33° C | 45% | 1019.7 hPa | 0 mm | - | - | - |
| 1777486205 | 16.67° C | 51% | 1021 hPa | 0 mm | - | - | - |
| 1777485005 | 17.22° C | 50% | 1021.3 hPa | 0 mm | - | - | - |
| 1777482604 | 16.11° C | 55% | 1021.7 hPa | 0 mm | - | - | - |
| 1777482005 | 15° C | 59% | 1021.8 hPa | 0 mm | - | - | - |
| 1777479604 | 15° C | 60% | 1021.8 hPa | 0 mm | - | - | - |
| 1777474805 | 10.56° C | 76% | 1021.8 hPa | 0 mm | - | - | - |
| 1777470004 | 8.33° C | 85% | 1021.8 hPa | 0 mm | - | - | - |
| 1777458605 | 3.89° C | 100% | 1020.6 hPa | 0 mm | - | - | - |
| 1777458004 | 4.44° C | 100% | 1020.3 hPa | 0 mm | - | - | - |
| 1777456205 | 5° C | 100% | 1020.3 hPa | 0 mm | - | - | - |
| 1777453204 | 5.56° C | 97% | 1019.8 hPa | 0 mm | - | - | - |
* Rain latest hour (hover to see other rain measurements)
** Current wind speed in m/s (hover to see current wind gust speed)